Location: Newark
(7.1028°S, 35.3258°W)
Time: 11:23:46
(UTC+00:00)

Vanguard 3 - Pass Details

Date: 04 March 2020
Orbit: 508 x 3263 km, 33.4° (Epoch: 06 April)

Event Time Altitude Azimuth Distance (km) Brightness Sun altitude
Rises 20:26:04 0° 263° (W) 6,211 15.5 2.4°
Reaches altitude 10° 20:30:33 10° 254° (WSW) 5,530 13.5 1.3°
Maximum altitude 20:45:59 33° 195° (SSW) 4,496 11.2 -2.5°
Drops below altitude 10° 21:02:48 10° 137° (SE) 5,957 11.2 -6.6°
Sets 21:07:59 0° 127° (SE) 6,721 11.4 -7.9°
